Change the Weather History Date:

Friday, May 9, 2014

  Actual Average Record
Temperature  
Mean Temperature 71 °F -  
Max Temperature 80 °F 63 °F 87 °F (1979)
Min Temperature 62 °F 36 °F 23 °F (1985)
Cooling Degree Days 6    
Growing Degree Days 21 (Base 50)    
Moisture  
Dew Point 55 °F    
Average Humidity 64    
Maximum Humidity 88    
Minimum Humidity 34    
Precipitation  
Precipitation 0.15 in - - ()
Sea Level Pressure  
Sea Level Pressure 29.96 in    
Wind  
Wind Speed 8 mph (SSW)    
Max Wind Speed 28 mph    
Max Gust Speed 38 mph    
Visibility 10 miles    
Events Thunderstorm    
Averages and records for this station are not official NWS values.
T = Trace of Precipitation, MM = Missing Value Source: NWS Daily Summary

Daily Weather History Graph

Daily Weather History Graph

Search for Another Location

Airport or City:

Trip Planner

Search our weather history database for the weather conditions in past years. The results will help you decide how hot, cold, wet, or windy it might be!

Date:

Astronomy

May. 09, 2014 Rise Set
Actual Time 6:02 AM EDT 8:24 PM EDT
Civil Twilight 5:31 AM EDT 8:56 PM EDT
Nautical Twilight 4:52 AM EDT 9:35 PM EDT
Astronomical Twilight 4:09 AM EDT 10:18 PM EDT
Moon 3:15 PM EDT (5/9) 3:09 AM EDT (5/9)
Length of Visible Light 15h 25m
Length of Day
14h 22m
Waxing Gibbous, 73% of the Moon is Illuminated
May 9
Waxing Gibbous
May 14
Full
May 21
Last Quarter
May 28
New
Jun 5
First Quarter

Hourly Weather History & Observations

Time (EDT) Temp. Dew Point Humidity Pressure Visibility Wind Dir Wind Speed Gust Speed Precip Events Conditions
12:15 AM 66.2 °F 55.4 °F 68% 30.05 in 10.0 mi South 5.8 mph - N/A   Mostly Cloudy
12:35 AM 66.2 °F 55.4 °F 68% 30.03 in 10.0 mi South 6.9 mph - N/A   Scattered Clouds
12:55 AM 66.2 °F 55.4 °F 68% 30.03 in 10.0 mi South 5.8 mph - N/A   Clear
1:15 AM 64.4 °F 55.4 °F 73% 30.03 in 10.0 mi South 4.6 mph - N/A   Clear
1:35 AM 66.2 °F 55.4 °F 68% 30.03 in 10.0 mi SSW 6.9 mph - N/A   Clear
1:55 AM 68.0 °F 55.4 °F 64% 30.02 in 10.0 mi SSW 5.8 mph - N/A   Partly Cloudy
2:15 AM 68.0 °F 55.4 °F 64% 30.02 in 10.0 mi SSW 6.9 mph - N/A   Partly Cloudy
2:35 AM 66.2 °F 55.4 °F 68% 30.02 in 10.0 mi SSW 8.1 mph - N/A   Clear
2:55 AM 66.2 °F 55.4 °F 68% 30.01 in 10.0 mi SSW 8.1 mph - N/A   Clear
3:15 AM 66.2 °F 55.4 °F 68% 30.01 in 10.0 mi SSW 6.9 mph - N/A   Clear
3:35 AM 66.2 °F 55.4 °F 68% 30.02 in 10.0 mi SSW 9.2 mph - N/A   Clear
3:55 AM 66.2 °F 55.4 °F 68% 30.02 in 10.0 mi SSW 9.2 mph - N/A   Clear
4:15 AM 66.2 °F 55.4 °F 68% 30.02 in 10.0 mi South 5.8 mph - N/A   Clear
4:35 AM 66.2 °F 55.4 °F 68% 30.02 in 10.0 mi South 8.1 mph - N/A   Clear
5:15 AM 66.2 °F 55.4 °F 68% 30.01 in 10.0 mi SSW 4.6 mph - N/A   Clear
5:35 AM 66.2 °F 53.6 °F 64% 30.01 in 10.0 mi SSW 4.6 mph - N/A   Clear
5:55 AM 66.2 °F 53.6 °F 64% 30.01 in 10.0 mi South 4.6 mph - N/A   Clear
6:15 AM 64.4 °F 53.6 °F 68% 30.01 in 10.0 mi SSE 4.6 mph - N/A   Clear
6:35 AM 62.6 °F 53.6 °F 72% 30.01 in 10.0 mi South 5.8 mph - N/A   Clear
6:55 AM 62.6 °F 53.6 °F 72% 30.01 in 10.0 mi South 5.8 mph - N/A   Clear
7:15 AM 62.6 °F 53.6 °F 72% 30.02 in 10.0 mi South 6.9 mph - N/A   Clear
7:35 AM 62.6 °F 53.6 °F 72% 30.03 in 10.0 mi South 6.9 mph - N/A   Clear
7:55 AM 62.6 °F 55.4 °F 77% 30.03 in 10.0 mi South 5.8 mph - N/A   Clear
8:15 AM 64.4 °F 55.4 °F 73% 30.02 in 10.0 mi SSE 6.9 mph - N/A   Clear
8:35 AM 68.0 °F 55.4 °F 64% 30.02 in 10.0 mi South 8.1 mph - N/A   Clear
8:55 AM 69.8 °F 53.6 °F 56% 30.02 in 10.0 mi South 11.5 mph - N/A   Clear
9:15 AM 71.6 °F 55.4 °F 57% 30.02 in 10.0 mi South 8.1 mph - N/A   Clear
9:35 AM 73.4 °F 53.6 °F 50% 30.02 in 10.0 mi South 9.2 mph 17.3 mph N/A   Clear
9:55 AM 73.4 °F 53.6 °F 50% 30.01 in 10.0 mi SSW 12.7 mph - N/A   Clear
10:15 AM 75.2 °F 53.6 °F 47% 30.01 in 10.0 mi SSW 16.1 mph - N/A   Clear
10:35 AM 75.2 °F 53.6 °F 47% 30.01 in 10.0 mi SSW 13.8 mph 17.3 mph N/A   Clear
10:55 AM 75.2 °F 53.6 °F 47% 30.00 in 10.0 mi SSW 15.0 mph 19.6 mph N/A   Clear
11:15 AM 75.2 °F 53.6 °F 47% 30.00 in 10.0 mi SW 11.5 mph 18.4 mph N/A   Clear
11:35 AM 75.2 °F 53.6 °F 47% 29.99 in 10.0 mi South 13.8 mph 19.6 mph N/A   Clear
11:55 AM 77.0 °F 51.8 °F 41% 29.99 in 10.0 mi South 13.8 mph 21.9 mph N/A   Clear
12:15 PM 78.8 °F 48.2 °F 34% 29.98 in 10.0 mi South 17.3 mph 26.5 mph N/A   Clear
12:35 PM 78.8 °F 48.2 °F 34% 29.98 in 10.0 mi SSW 12.7 mph 24.2 mph N/A   Clear
12:55 PM 78.8 °F 48.2 °F 34% 29.97 in 10.0 mi SSW 19.6 mph 25.3 mph N/A   Clear
1:15 PM 80.6 °F 50.0 °F 34% 29.96 in 10.0 mi South 16.1 mph 23.0 mph N/A   Clear
1:35 PM 78.8 °F 51.8 °F 39% 29.95 in 10.0 mi South 9.2 mph 19.6 mph N/A   Partly Cloudy
1:55 PM 78.8 °F 51.8 °F 39% 29.94 in 10.0 mi SSW 19.6 mph 26.5 mph N/A   Scattered Clouds
2:15 PM 78.8 °F 51.8 °F 39% 29.93 in 10.0 mi South 16.1 mph 24.2 mph N/A   Partly Cloudy
2:35 PM 78.8 °F 53.6 °F 42% 29.92 in 10.0 mi South 13.8 mph 18.4 mph N/A   Clear
2:55 PM 78.8 °F 51.8 °F 39% 29.91 in 10.0 mi South 9.2 mph 21.9 mph N/A   Clear
3:15 PM 78.8 °F 51.8 °F 39% 29.89 in 10.0 mi South 13.8 mph 19.6 mph N/A   Partly Cloudy
3:35 PM 78.8 °F 51.8 °F 39% 29.89 in 10.0 mi SSW 6.9 mph - N/A   Partly Cloudy
3:55 PM 78.8 °F 51.8 °F 39% 29.88 in 10.0 mi South 13.8 mph 21.9 mph N/A   Scattered Clouds
4:15 PM 78.8 °F 51.8 °F 39% 29.88 in 10.0 mi South 15.0 mph 25.3 mph N/A   Mostly Cloudy
4:35 PM 78.8 °F 51.8 °F 39% 29.88 in 10.0 mi SSW 11.5 mph 17.3 mph N/A   Mostly Cloudy
4:55 PM 75.2 °F 51.8 °F 44% 29.92 in 10.0 mi SW 27.6 mph 38.0 mph N/A Thunderstorm Thunderstorm
5:15 PM 64.4 °F 57.2 °F 77% 29.93 in 9.0 mi WSW 16.1 mph 29.9 mph 0.02 in   Overcast
5:35 PM 62.6 °F 57.2 °F 82% 29.89 in 8.0 mi SSE 4.6 mph 16.1 mph 0.06 in   Overcast
5:55 PM 62.6 °F 57.2 °F 82% 29.89 in 10.0 mi South 4.6 mph - 0.07 in   Mostly Cloudy
6:15 PM 62.6 °F 59.0 °F 88% 29.89 in 10.0 mi SSE 5.8 mph - N/A   Scattered Clouds
6:35 PM 62.6 °F 59.0 °F 88% 29.89 in 10.0 mi SSE 4.6 mph - N/A   Partly Cloudy
6:55 PM 62.6 °F 59.0 °F 88% 29.87 in 10.0 mi South 3.5 mph - N/A   Scattered Clouds
7:15 PM 62.6 °F 59.0 °F 88% 29.87 in 10.0 mi South 4.6 mph - N/A   Overcast
7:35 PM 62.6 °F 59.0 °F 88% 29.87 in 10.0 mi South 3.5 mph - N/A   Overcast
7:55 PM 62.6 °F 59.0 °F 88% 29.89 in 8.0 mi SSW 6.9 mph - 0.04 in   Overcast
8:15 PM 62.6 °F 59.0 °F 88% 29.88 in 10.0 mi SSW 5.8 mph - N/A   Overcast
8:35 PM 62.6 °F 57.2 °F 82% 29.87 in 10.0 mi SSW 8.1 mph - 0.01 in   Overcast
8:55 PM 62.6 °F 57.2 °F 82% 29.88 in 10.0 mi SSW 9.2 mph - 0.01 in   Overcast
9:15 PM 62.6 °F 57.2 °F 82% 29.87 in 10.0 mi SSW 11.5 mph 19.6 mph 0.01 in   Overcast
9:35 PM 62.6 °F 57.2 °F 82% 29.88 in 10.0 mi SSW 8.1 mph - 0.01 in   Overcast
9:55 PM 62.6 °F 57.2 °F 82% 29.89 in 9.0 mi SSW 15.0 mph 21.9 mph 0.03 in   Overcast
10:15 PM 62.6 °F 57.2 °F 82% 29.88 in 10.0 mi SSW 9.2 mph 21.9 mph N/A   Overcast
10:35 PM 62.6 °F 57.2 °F 82% 29.87 in 10.0 mi SSW 9.2 mph - N/A   Overcast
10:55 PM 62.6 °F 57.2 °F 82% 29.87 in 10.0 mi SSW 9.2 mph - N/A   Overcast
11:15 PM 62.6 °F 57.2 °F 82% 29.87 in 10.0 mi SSW 9.2 mph - N/A   Overcast
11:35 PM 62.6 °F 57.2 °F 82% 29.87 in 10.0 mi SSW 8.1 mph - N/A   Overcast
11:55 PM 62.6 °F 57.2 °F 82% 29.87 in 10.0 mi SSW 9.2 mph - N/A   Overcast